{"data":{"norad_id":67556,"intl_designator":"2026-015A","name":"MR-2","alt_names":[],"object_type":"PAYLOAD","status":"ACTIVE","operator":null,"country":"SPN","launch_date":"2026-01-22","launch_site_code":"RLLB","launch_vehicle":null,"mission":null,"orbit_class":"UNKNOWN","rcs_meters":null,"size_class":null,"mass_kg":null,"dimensions":null,"purposes":[],"wikipedia_slug":null,"has_3d_model":false,"image_url":null,"decayed_at":null,"tle_current":{"epoch":"2026-05-25T01:12:43.066944Z","epoch_age_seconds":73958,"freshness":"FRESH","line1":"1 67556U 26015A   26145.05049846  .00000064  00000+0  77601-4 0  9991","line2":"2 67556  88.9987 270.8817 0004778 127.6169 232.5417 13.52692359 16580","mean_motion":13.52692359,"eccentricity":0.0004778,"inclination_deg":88.9987,"raan_deg":270.8817,"arg_perigee_deg":127.6169,"mean_anomaly_deg":232.5417,"bstar":7.7601e-5,"rev_number":1658,"period_min":106.45436047739,"perigee_km":1058.8141352773,"apogee_km":1065.9242830108,"semimajor_km":7440.506209144,"source":"CELESTRAK","updated_at":"2026-05-25T13:38:07.082067Z"}}}